Time,TemperatureF,DewpointF,PressureIn,WindDirection,WindDirectionDegrees,WindSpeedMPH,WindSpeedGustMPH,Humidity,HourlyPrecipIn,Conditions,Clouds,dailyrainin,SoftwareType,DateUTC
2013-01-08 00:03:00,35.8,29.9,30.32,SSW,213,0.0,0.0,79,0.00,,,0.00,LWC V2.00 B2112,2013-01-08 05:03:00,
2013-01-08 00:08:00,35.9,29.7,30.32,SSW,213,0.0,0.0,78,0.00,,,0.00,LWC V2.00 B2112,2013-01-08 05:08:00,
2013-01-08 00:13:00,35.6,29.4,30.32,SSW,213,0.0,0.0,78,0.00,,,0.00,LWC V2.00 B2112,2013-01-08 05:13:00,
2013-01-08 00:18:00,35.5,29.3,30.32,SSW,213,0.0,0.0,78,0.00,,,0.00,LWC V2.00 B2112,2013-01-08 05:18:00,
2013-01-08 00:23:00,35.2,29.4,30.32,SSW,213,0.0,0.0,79,0.00,,,0.00,LWC V2.00 B2112,2013-01-08 05:23:00,
2013-01-08 00:28:00,35.0,29.2,30.32,SSW,213,0.0,0.0,79,0.00,,,0.00,LWC V2.00 B2112,2013-01-08 05:28:00,
2013-01-08 00:33:00,34.7,29.2,30.33,SSW,213,0.0,0.0,80,0.00,,,0.00,LWC V2.00 B2112,2013-01-08 05:33:00,
2013-01-08 00:38:00,34.6,29.1,30.33,SSW,213,0.0,0.0,80,0.00,,,0.00,LWC V2.00 B2112,2013-01-08 05:38:00,
2013-01-08 00:43:00,34.4,29.2,30.33,SSW,213,0.0,0.0,81,0.00,,,0.00,LWC V2.00 B2112,2013-01-08 05:43:00,
2013-01-08 00:48:00,34.4,29.2,30.33,SSW,213,0.0,0.0,81,0.00,,,0.00,LWC V2.00 B2112,2013-01-08 05:48:00,
2013-01-08 00:53:00,34.3,29.1,30.33,SSW,213,0.0,0.0,81,0.00,,,0.00,LWC V2.00 B2112,2013-01-08 05:53:00,
2013-01-08 00:58:00,34.1,28.9,30.33,SSW,213,0.0,0.0,81,0.00,,,0.00,LWC V2.00 B2112,2013-01-08 05:58:00,
2013-01-08 01:03:00,34.0,28.8,30.33,SSW,213,0.0,0.0,81,0.00,,,0.00,LWC V2.00 B2112,2013-01-08 06:03:00,
2013-01-08 01:08:00,33.7,28.8,30.33,SSW,213,0.0,0.0,82,0.00,,,0.00,LWC V2.00 B2112,2013-01-08 06:08:00,
2013-01-08 01:13:00,33.5,28.6,30.33,SSW,213,0.0,0.0,82,0.00,,,0.00,LWC V2.00 B2112,2013-01-08 06:13:00,
2013-01-08 01:18:00,33.5,28.9,30.33,SSW,213,0.0,0.0,83,0.00,,,0.00,LWC V2.00 B2112,2013-01-08 06:18:00,
2013-01-08 01:23:00,33.5,28.9,30.33,SSW,213,0.0,0.0,83,0.00,,,0.00,LWC V2.00 B2112,2013-01-08 06:23:00,
2013-01-08 01:28:00,33.7,29.1,30.33,SSW,213,0.0,0.0,83,0.00,,,0.00,LWC V2.00 B2112,2013-01-08 06:28:00,
2013-01-08 01:33:00,33.7,29.1,30.33,SSW,213,0.0,0.0,83,0.00,,,0.00,LWC V2.00 B2112,2013-01-08 06:33:00,
2013-01-08 01:38:00,33.8,29.2,30.33,SSW,213,0.0,0.0,83,0.00,,,0.00,LWC V2.00 B2112,2013-01-08 06:38:00,
2013-01-08 01:43:00,33.8,29.2,30.33,SSW,213,0.0,0.0,83,0.00,,,0.00,LWC V2.00 B2112,2013-01-08 06:43:00,
2013-01-08 01:48:00,33.8,29.2,30.33,SSW,213,0.0,0.0,83,0.00,,,0.00,LWC V2.00 B2112,2013-01-08 06:48:00,
2013-01-08 01:53:00,33.7,29.1,30.33,SSW,213,0.0,0.0,83,0.00,,,0.00,LWC V2.00 B2112,2013-01-08 06:53:00,
2013-01-08 01:58:00,33.7,29.1,30.33,SSW,213,0.0,0.0,83,0.00,,,0.00,LWC V2.00 B2112,2013-01-08 06:58:00,
2013-01-08 02:03:00,33.7,29.1,30.33,SSW,213,0.0,0.0,83,0.00,,,0.00,LWC V2.00 B2112,2013-01-08 07:03:00,
2013-01-08 02:08:00,33.7,29.4,30.33,SSW,213,0.0,0.0,84,0.00,,,0.00,LWC V2.00 B2112,2013-01-08 07:08:00,
2013-01-08 02:13:00,33.5,29.2,30.33,SSW,213,0.0,0.0,84,0.00,,,0.00,LWC V2.00 B2112,2013-01-08 07:13:00,
2013-01-08 02:18:00,33.4,29.1,30.33,SSW,213,0.0,0.0,84,0.00,,,0.00,LWC V2.00 B2112,2013-01-08 07:18:00,
2013-01-08 02:23:00,33.1,28.8,30.33,SSW,213,0.0,0.0,84,0.00,,,0.00,LWC V2.00 B2112,2013-01-08 07:23:00,
2013-01-08 02:28:00,32.8,28.8,30.33,SSW,213,0.0,0.0,85,0.00,,,0.00,LWC V2.00 B2112,2013-01-08 07:28:00,
2013-01-08 02:33:00,32.7,28.7,30.33,SSW,213,0.0,0.0,85,0.00,,,0.00,LWC V2.00 B2112,2013-01-08 07:33:00,
2013-01-08 02:38:00,32.5,28.8,30.33,SSW,213,0.0,0.0,86,0.00,,,0.00,LWC V2.00 B2112,2013-01-08 07:38:00,
2013-01-08 02:43:00,32.4,28.7,30.33,SSW,213,0.0,0.0,86,0.00,,,0.00,LWC V2.00 B2112,2013-01-08 07:43:00,
2013-01-08 02:48:00,32.4,29.0,30.32,SSW,213,0.0,0.0,87,0.00,,,0.00,LWC V2.00 B2112,2013-01-08 07:48:00,
2013-01-08 02:53:00,32.4,29.0,30.32,SSW,213,0.0,0.0,87,0.00,,,0.00,LWC V2.00 B2112,2013-01-08 07:53:00,
2013-01-08 02:58:00,32.5,29.1,30.32,SSW,213,0.0,0.0,87,0.00,,,0.00,LWC V2.00 B2112,2013-01-08 07:58:00,
2013-01-08 03:03:00,32.8,29.6,30.33,SSW,213,0.0,0.0,88,0.00,,,0.00,LWC V2.00 B2112,2013-01-08 08:03:00,
2013-01-08 03:08:00,32.8,29.4,30.33,SSW,213,0.0,0.0,87,0.00,,,0.00,LWC V2.00 B2112,2013-01-08 08:08:00,
2013-01-08 03:13:00,32.8,29.4,30.33,SSW,213,0.0,0.0,87,0.00,,,0.00,LWC V2.00 B2112,2013-01-08 08:13:00,
2013-01-08 03:18:00,32.9,29.5,30.32,SSW,213,0.0,0.0,87,0.00,,,0.00,LWC V2.00 B2112,2013-01-08 08:18:00,
2013-01-08 03:23:00,33.1,29.7,30.32,SSW,213,0.0,0.0,87,0.00,,,0.00,LWC V2.00 B2112,2013-01-08 08:23:00,
2013-01-08 03:28:00,33.1,29.7,30.32,SSW,213,0.0,0.0,87,0.00,,,0.00,LWC V2.00 B2112,2013-01-08 08:28:00,
2013-01-08 03:33:00,33.2,29.8,30.32,SSW,213,0.0,0.0,87,0.00,,,0.00,LWC V2.00 B2112,2013-01-08 08:33:00,
2013-01-08 03:38:00,33.2,29.8,30.32,SSW,213,0.0,0.0,87,0.00,,,0.00,LWC V2.00 B2112,2013-01-08 08:38:00,
2013-01-08 03:43:00,33.2,29.5,30.32,SSW,213,0.0,0.0,86,0.00,,,0.00,LWC V2.00 B2112,2013-01-08 08:43:00,
2013-01-08 03:48:00,33.2,29.8,30.31,SSW,213,0.0,0.0,87,0.00,,,0.00,LWC V2.00 B2112,2013-01-08 08:48:00,
2013-01-08 03:53:00,33.1,29.7,30.31,SSW,213,0.0,0.0,87,0.00,,,0.00,LWC V2.00 B2112,2013-01-08 08:53:00,
2013-01-08 03:58:00,33.1,29.7,30.31,SSW,213,0.0,0.0,87,0.00,,,0.00,LWC V2.00 B2112,2013-01-08 08:58:00,
2013-01-08 04:03:00,32.8,29.1,30.31,SSW,213,0.0,0.0,86,0.00,,,0.00,LWC V2.00 B2112,2013-01-08 09:03:00,
2013-01-08 04:08:00,32.7,29.0,30.31,SSW,213,0.0,0.0,86,0.00,,,0.00,LWC V2.00 B2112,2013-01-08 09:08:00,
2013-01-08 04:13:00,32.4,29.0,30.31,SSW,213,0.0,0.0,87,0.00,,,0.00,LWC V2.00 B2112,2013-01-08 09:13:00,
2013-01-08 04:18:00,32.1,28.7,30.31,SSW,213,0.0,0.0,87,0.00,,,0.00,LWC V2.00 B2112,2013-01-08 09:18:00,
2013-01-08 04:23:00,31.9,28.5,30.31,SSW,213,0.0,0.0,87,0.00,,,0.00,LWC V2.00 B2112,2013-01-08 09:23:00,
2013-01-08 04:28:00,31.6,28.2,30.31,SSW,213,0.0,0.0,87,0.00,,,0.00,LWC V2.00 B2112,2013-01-08 09:28:00,
2013-01-08 04:33:00,31.5,28.4,30.32,SSW,213,0.0,0.0,88,0.00,,,0.00,LWC V2.00 B2112,2013-01-08 09:33:00,
2013-01-08 04:38:00,31.3,28.4,30.32,SSW,213,0.0,0.0,89,0.00,,,0.00,LWC V2.00 B2112,2013-01-08 09:38:00,
2013-01-08 04:43:00,31.3,28.4,30.32,SSW,213,0.0,0.0,89,0.00,,,0.00,LWC V2.00 B2112,2013-01-08 09:43:00,
2013-01-08 04:48:00,31.2,28.6,30.32,SSW,213,0.0,0.0,90,0.00,,,0.00,LWC V2.00 B2112,2013-01-08 09:48:00,
2013-01-08 04:53:00,31.2,28.6,30.32,SSW,213,0.0,0.0,90,0.00,,,0.00,LWC V2.00 B2112,2013-01-08 09:53:00,
2013-01-08 04:58:00,31.2,28.6,30.32,SSW,213,0.0,0.0,90,0.00,,,0.00,LWC V2.00 B2112,2013-01-08 09:58:00,
2013-01-08 05:03:00,31.3,29.0,30.32,SSW,213,0.0,0.0,91,0.00,,,0.00,LWC V2.00 B2112,2013-01-08 10:03:00,
2013-01-08 05:08:00,31.2,28.9,30.32,SSW,213,0.0,0.0,91,0.00,,,0.00,LWC V2.00 B2112,2013-01-08 10:08:00,
2013-01-08 05:13:00,31.3,29.3,30.32,SSW,213,0.0,0.0,92,0.00,,,0.00,LWC V2.00 B2112,2013-01-08 10:13:00,
2013-01-08 05:18:00,31.8,29.7,30.32,SSW,213,0.0,0.0,92,0.00,,,0.00,LWC V2.00 B2112,2013-01-08 10:18:00,
2013-01-08 05:23:00,31.9,29.8,30.32,SSW,213,0.0,0.0,92,0.00,,,0.00,LWC V2.00 B2112,2013-01-08 10:23:00,
2013-01-08 05:28:00,32.1,30.0,30.32,SSW,213,0.0,0.0,92,0.00,,,0.00,LWC V2.00 B2112,2013-01-08 10:28:00,
2013-01-08 05:33:00,32.2,30.1,30.32,SSW,213,0.0,0.0,92,0.00,,,0.00,LWC V2.00 B2112,2013-01-08 10:33:00,
2013-01-08 05:38:00,32.1,29.8,30.32,SSW,213,0.0,0.0,91,0.00,,,0.00,LWC V2.00 B2112,2013-01-08 10:38:00,
2013-01-08 05:43:00,32.2,30.1,30.32,SSW,213,0.0,0.0,92,0.00,,,0.00,LWC V2.00 B2112,2013-01-08 10:43:00,
2013-01-08 05:48:00,32.5,30.4,30.32,SSW,213,0.0,0.0,92,0.00,,,0.00,LWC V2.00 B2112,2013-01-08 10:48:00,
2013-01-08 05:58:00,33.1,31.3,30.32,SSW,213,0.0,0.0,93,0.00,,,0.00,LWC V2.00 B2112,2013-01-08 10:58:00,
2013-01-08 06:03:00,33.5,31.7,30.33,SSW,213,0.0,0.0,93,0.00,,,0.00,LWC V2.00 B2112,2013-01-08 11:03:00,
2013-01-08 06:08:00,33.7,31.6,30.33,SSW,213,0.0,0.0,92,0.00,,,0.00,LWC V2.00 B2112,2013-01-08 11:08:00,
2013-01-08 06:13:00,33.8,31.7,30.33,SSW,213,0.0,0.0,92,0.00,,,0.00,LWC V2.00 B2112,2013-01-08 11:13:00,
2013-01-08 06:18:00,34.1,32.0,30.32,SSW,213,0.0,0.0,92,0.00,,,0.00,LWC V2.00 B2112,2013-01-08 11:18:00,
2013-01-08 06:23:00,34.3,32.2,30.32,SSW,213,0.0,0.0,92,0.00,,,0.00,LWC V2.00 B2112,2013-01-08 11:23:00,
2013-01-08 06:28:00,34.4,32.3,30.32,SSW,213,0.0,0.0,92,0.00,,,0.00,LWC V2.00 B2112,2013-01-08 11:28:00,
2013-01-08 06:33:00,34.6,32.5,30.34,SSW,213,0.0,0.0,92,0.00,,,0.00,LWC V2.00 B2112,2013-01-08 11:33:00,
2013-01-08 06:38:00,34.9,32.8,30.34,SSW,213,0.0,0.0,92,0.00,,,0.00,LWC V2.00 B2112,2013-01-08 11:38:00,
2013-01-08 06:43:00,34.9,32.5,30.34,SSW,213,0.0,0.0,91,0.00,,,0.00,LWC V2.00 B2112,2013-01-08 11:43:00,
2013-01-08 06:48:00,34.9,32.5,30.34,SSW,213,0.0,0.0,91,0.00,,,0.00,LWC V2.00 B2112,2013-01-08 11:48:00,
2013-01-08 06:53:00,34.9,32.3,30.34,SSW,213,0.0,0.0,90,0.00,,,0.00,LWC V2.00 B2112,2013-01-08 11:53:00,
2013-01-08 06:58:00,34.7,32.1,30.34,SSW,213,0.0,0.0,90,0.00,,,0.00,LWC V2.00 B2112,2013-01-08 11:58:00,
2013-01-08 07:03:00,34.9,32.3,30.34,SSW,213,0.0,0.0,90,0.00,,,0.00,LWC V2.00 B2112,2013-01-08 12:03:00,
2013-01-08 07:08:00,35.0,32.4,30.34,SSW,213,0.0,0.0,90,0.00,,,0.00,LWC V2.00 B2112,2013-01-08 12:08:00,
2013-01-08 07:13:00,35.2,32.6,30.34,SSW,213,0.0,0.0,90,0.00,,,0.00,LWC V2.00 B2112,2013-01-08 12:13:00,
2013-01-08 07:18:00,35.5,33.1,30.34,SSW,213,0.0,0.0,91,0.00,,,0.00,LWC V2.00 B2112,2013-01-08 12:18:00,
2013-01-08 07:23:00,35.6,33.2,30.34,SSW,213,0.0,0.0,91,0.00,,,0.00,LWC V2.00 B2112,2013-01-08 12:23:00,
2013-01-08 07:28:00,36.2,33.6,30.34,SSW,213,0.0,0.0,90,0.00,,,0.00,LWC V2.00 B2112,2013-01-08 12:28:00,
2013-01-08 07:33:00,36.8,33.3,30.34,East,89,0.0,0.0,87,0.00,,,0.00,LWC V2.00 B2112,2013-01-08 12:33:00,
2013-01-08 07:38:00,37.3,32.6,30.34,East,89,0.0,0.0,83,0.00,,,0.00,LWC V2.00 B2112,2013-01-08 12:38:00,
2013-01-08 07:43:00,37.8,32.5,30.34,East,89,0.0,0.0,81,0.00,,,0.00,LWC V2.00 B2112,2013-01-08 12:43:00,
2013-01-08 07:48:00,37.9,32.3,30.34,East,89,0.0,0.0,80,0.00,,,0.00,LWC V2.00 B2112,2013-01-08 12:48:00,
2013-01-08 07:53:00,38.0,32.1,30.34,East,89,0.0,0.0,79,0.00,,,0.00,LWC V2.00 B2112,2013-01-08 12:53:00,
2013-01-08 07:58:00,38.2,32.3,30.34,East,89,0.0,0.0,79,0.00,,,0.00,LWC V2.00 B2112,2013-01-08 12:58:00,
2013-01-08 08:03:00,38.3,32.4,30.35,East,89,0.0,0.0,79,0.00,,,0.00,LWC V2.00 B2112,2013-01-08 13:03:00,
2013-01-08 08:08:00,38.5,32.6,30.35,East,89,0.0,0.0,79,0.00,,,0.00,LWC V2.00 B2112,2013-01-08 13:08:00,
2013-01-08 08:13:00,38.6,32.0,30.35,East,89,0.0,0.0,77,0.00,,,0.00,LWC V2.00 B2112,2013-01-08 13:13:00,
2013-01-08 08:18:00,38.8,31.9,30.35,East,89,0.0,0.0,76,0.00,,,0.00,LWC V2.00 B2112,2013-01-08 13:18:00,
2013-01-08 08:23:00,38.9,32.0,30.35,East,89,0.0,0.0,76,0.00,,,0.00,LWC V2.00 B2112,2013-01-08 13:23:00,
2013-01-08 08:28:00,39.1,31.9,30.35,East,89,0.0,0.0,75,0.00,,,0.00,LWC V2.00 B2112,2013-01-08 13:28:00,
2013-01-08 08:33:00,39.2,32.3,30.36,East,89,0.0,0.0,76,0.00,,,0.00,LWC V2.00 B2112,2013-01-08 13:33:00,
2013-01-08 08:38:00,39.3,31.4,30.36,East,89,0.0,0.0,73,0.00,,,0.00,LWC V2.00 B2112,2013-01-08 13:38:00,
2013-01-08 08:43:00,39.5,31.9,30.36,East,89,0.0,0.0,74,0.00,,,0.00,LWC V2.00 B2112,2013-01-08 13:43:00,
2013-01-08 08:48:00,39.8,31.9,30.37,East,89,0.0,0.0,73,0.00,,,0.00,LWC V2.00 B2112,2013-01-08 13:48:00,
2013-01-08 08:53:00,39.9,32.3,30.37,East,89,0.0,0.0,74,0.00,,,0.00,LWC V2.00 B2112,2013-01-08 13:53:00,
2013-01-08 08:58:00,40.1,33.2,30.37,East,89,0.0,0.0,76,0.00,,,0.00,LWC V2.00 B2112,2013-01-08 13:58:00,
2013-01-08 09:03:00,40.1,31.8,30.38,East,89,0.0,0.0,72,0.00,,,0.00,LWC V2.00 B2112,2013-01-08 14:03:00,
2013-01-08 09:08:00,40.2,31.9,30.38,East,89,0.0,0.0,72,0.00,,,0.00,LWC V2.00 B2112,2013-01-08 14:08:00,
2013-01-08 09:13:00,40.3,32.3,30.38,East,89,0.0,0.0,73,0.00,,,0.00,LWC V2.00 B2112,2013-01-08 14:13:00,
2013-01-08 09:18:00,40.6,33.0,30.38,East,89,0.0,0.0,74,0.00,,,0.00,LWC V2.00 B2112,2013-01-08 14:18:00,
2013-01-08 09:23:00,40.8,32.8,30.38,East,89,0.0,0.0,73,0.00,,,0.00,LWC V2.00 B2112,2013-01-08 14:23:00,
2013-01-08 09:28:00,40.9,32.6,30.38,East,89,0.0,0.0,72,0.00,,,0.00,LWC V2.00 B2112,2013-01-08 14:28:00,
2013-01-08 09:33:00,41.1,32.8,30.38,East,89,0.0,0.0,72,0.00,,,0.00,LWC V2.00 B2112,2013-01-08 14:33:00,
2013-01-08 09:38:00,41.2,33.2,30.38,East,89,0.0,0.0,73,0.00,,,0.00,LWC V2.00 B2112,2013-01-08 14:38:00,
2013-01-08 09:43:00,41.2,32.5,30.38,East,89,0.0,0.0,71,0.00,,,0.00,LWC V2.00 B2112,2013-01-08 14:43:00,
2013-01-08 09:48:00,41.3,33.0,30.38,East,89,0.0,0.0,72,0.00,,,0.00,LWC V2.00 B2112,2013-01-08 14:48:00,
2013-01-08 09:53:00,41.5,32.8,30.38,East,89,0.0,0.0,71,0.00,,,0.00,LWC V2.00 B2112,2013-01-08 14:53:00,
2013-01-08 09:58:00,41.9,33.2,30.38,East,89,0.0,0.0,71,0.00,,,0.00,LWC V2.00 B2112,2013-01-08 14:58:00,
2013-01-08 10:03:00,42.2,33.1,30.38,East,89,0.0,0.0,70,0.00,,,0.00,LWC V2.00 B2112,2013-01-08 15:03:00,
2013-01-08 10:08:00,42.5,33.1,30.38,East,89,0.0,0.0,69,0.00,,,0.00,LWC V2.00 B2112,2013-01-08 15:08:00,
2013-01-08 10:13:00,42.6,32.8,30.38,East,89,0.0,0.0,68,0.00,,,0.00,LWC V2.00 B2112,2013-01-08 15:13:00,
2013-01-08 10:18:00,42.8,33.0,30.38,East,89,0.0,0.0,68,0.00,,,0.00,LWC V2.00 B2112,2013-01-08 15:18:00,
2013-01-08 10:23:00,42.8,32.6,30.38,East,89,0.0,0.0,67,0.00,,,0.00,LWC V2.00 B2112,2013-01-08 15:23:00,
2013-01-08 10:28:00,42.9,33.4,30.38,East,89,0.0,0.0,69,0.00,,,0.00,LWC V2.00 B2112,2013-01-08 15:28:00,
2013-01-08 10:33:00,43.1,32.9,30.38,East,89,0.0,0.0,67,0.00,,,0.00,LWC V2.00 B2112,2013-01-08 15:33:00,
2013-01-08 10:38:00,43.2,34.8,30.38,East,89,0.0,0.0,72,0.00,,,0.00,LWC V2.00 B2112,2013-01-08 15:38:00,
2013-01-08 10:43:00,43.1,35.0,30.38,SE,143,0.0,0.0,73,0.00,,,0.00,LWC V2.00 B2112,2013-01-08 15:43:00,
2013-01-08 10:48:00,43.1,35.0,30.38,SE,143,0.0,0.0,73,0.00,,,0.00,LWC V2.00 B2112,2013-01-08 15:48:00,
2013-01-08 10:53:00,43.1,34.3,30.38,SE,143,0.0,0.0,71,0.00,,,0.00,LWC V2.00 B2112,2013-01-08 15:53:00,
2013-01-08 10:58:00,43.2,34.8,30.38,SE,143,0.0,0.0,72,0.00,,,0.00,LWC V2.00 B2112,2013-01-08 15:58:00,
2013-01-08 11:03:00,43.5,34.0,30.37,SE,143,0.0,0.0,69,0.00,,,0.00,LWC V2.00 B2112,2013-01-08 16:03:00,
2013-01-08 11:08:00,43.6,33.4,30.37,SE,143,0.0,0.0,67,0.00,,,0.00,LWC V2.00 B2112,2013-01-08 16:08:00,
2013-01-08 11:13:00,43.9,33.7,30.37,SE,143,0.0,0.0,67,0.00,,,0.00,LWC V2.00 B2112,2013-01-08 16:13:00,
2013-01-08 11:18:00,44.2,33.6,30.36,SE,143,0.0,0.0,66,0.00,,,0.00,LWC V2.00 B2112,2013-01-08 16:18:00,
2013-01-08 11:23:00,44.5,33.5,30.36,SSE,148,0.0,0.0,65,0.00,,,0.00,LWC V2.00 B2112,2013-01-08 16:23:00,
2013-01-08 11:28:00,45.1,33.7,30.36,SSE,148,0.0,0.0,64,0.00,,,0.00,LWC V2.00 B2112,2013-01-08 16:28:00,
2013-01-08 11:33:00,45.5,33.2,30.36,SSE,148,0.0,0.0,62,0.00,,,0.00,LWC V2.00 B2112,2013-01-08 16:33:00,
2013-01-08 11:38:00,45.5,35.2,30.36,SSE,148,0.0,0.0,67,0.00,,,0.00,LWC V2.00 B2112,2013-01-08 16:38:00,
2013-01-08 11:43:00,45.4,35.8,30.36,SW,226,0.0,0.0,69,0.00,,,0.00,LWC V2.00 B2112,2013-01-08 16:43:00,
2013-01-08 11:48:00,45.2,35.6,30.35,SW,226,0.0,0.0,69,0.00,,,0.00,LWC V2.00 B2112,2013-01-08 16:48:00,
2013-01-08 11:53:00,45.1,36.3,30.35,SW,226,0.0,0.0,71,0.00,,,0.00,LWC V2.00 B2112,2013-01-08 16:53:00,
2013-01-08 11:58:00,44.9,36.1,30.35,SW,226,0.0,0.0,71,0.00,,,0.00,LWC V2.00 B2112,2013-01-08 16:58:00,
2013-01-08 12:03:00,44.8,35.6,30.35,SW,226,0.0,0.0,70,0.00,,,0.00,LWC V2.00 B2112,2013-01-08 17:03:00,
2013-01-08 12:08:00,44.8,35.6,30.35,SW,226,0.0,0.0,70,0.00,,,0.00,LWC V2.00 B2112,2013-01-08 17:08:00,
2013-01-08 12:13:00,44.9,36.1,30.35,SW,227,0.0,0.0,71,0.00,,,0.00,LWC V2.00 B2112,2013-01-08 17:13:00,
2013-01-08 12:18:00,45.1,35.9,30.33,SW,226,0.0,0.0,70,0.00,,,0.00,LWC V2.00 B2112,2013-01-08 17:18:00,
2013-01-08 12:23:00,45.4,36.2,30.33,SW,226,0.0,0.0,70,0.00,,,0.00,LWC V2.00 B2112,2013-01-08 17:23:00,
2013-01-08 12:28:00,45.8,36.2,30.33,WSW,257,0.0,0.0,69,0.00,,,0.00,LWC V2.00 B2112,2013-01-08 17:28:00,
2013-01-08 12:33:00,46.4,35.7,30.33,WSW,257,0.0,0.0,66,0.00,,,0.00,LWC V2.00 B2112,2013-01-08 17:33:00,
2013-01-08 12:38:00,46.7,36.0,30.33,WSW,257,0.0,0.0,66,0.00,,,0.00,LWC V2.00 B2112,2013-01-08 17:38:00,
2013-01-08 12:43:00,47.0,35.5,30.33,West,261,0.0,0.0,64,0.00,,,0.00,LWC V2.00 B2112,2013-01-08 17:43:00,
2013-01-08 12:48:00,47.3,35.3,30.32,West,261,0.0,0.0,63,0.00,,,0.00,LWC V2.00 B2112,2013-01-08 17:48:00,
2013-01-08 12:53:00,47.7,36.9,30.32,WSW,258,0.0,0.0,66,0.00,,,0.00,LWC V2.00 B2112,2013-01-08 17:53:00,
2013-01-08 12:58:00,48.0,36.0,30.32,South,169,0.0,0.0,63,0.00,,,0.00,LWC V2.00 B2112,2013-01-08 17:58:00,
2013-01-08 13:03:00,48.8,36.8,30.31,South,169,0.0,0.0,63,0.00,,,0.00,LWC V2.00 B2112,2013-01-08 18:03:00,
2013-01-08 13:08:00,49.1,35.8,30.31,South,169,0.0,0.0,60,0.00,,,0.00,LWC V2.00 B2112,2013-01-08 18:08:00,
2013-01-08 13:13:00,49.5,35.8,30.31,South,169,0.0,0.0,59,0.00,,,0.00,LWC V2.00 B2112,2013-01-08 18:13:00,
2013-01-08 13:18:00,49.9,37.0,30.31,South,169,0.0,0.0,61,0.00,,,0.00,LWC V2.00 B2112,2013-01-08 18:18:00,
2013-01-08 13:23:00,50.5,36.3,30.31,South,170,0.0,0.0,58,0.00,,,0.00,LWC V2.00 B2112,2013-01-08 18:23:00,
2013-01-08 13:28:00,50.7,36.0,30.31,South,170,0.0,0.0,57,0.00,,,0.00,LWC V2.00 B2112,2013-01-08 18:28:00,
2013-01-08 13:33:00,50.8,35.7,30.31,SW,233,0.0,0.0,56,0.00,,,0.00,LWC V2.00 B2112,2013-01-08 18:33:00,
2013-01-08 13:38:00,51.3,36.6,30.31,South,181,0.0,0.0,57,0.00,,,0.00,LWC V2.00 B2112,2013-01-08 18:38:00,
2013-01-08 13:43:00,51.4,34.8,30.31,SW,225,0.0,0.0,53,0.00,,,0.00,LWC V2.00 B2112,2013-01-08 18:43:00,
2013-01-08 13:48:00,51.4,34.8,30.30,SW,226,0.0,0.0,53,0.00,,,0.00,LWC V2.00 B2112,2013-01-08 18:48:00,
2013-01-08 13:53:00,51.3,34.3,30.30,West,261,0.0,0.0,52,0.00,,,0.00,LWC V2.00 B2112,2013-01-08 18:53:00,
2013-01-08 13:58:00,51.4,33.9,30.30,West,260,0.0,0.0,51,0.00,,,0.00,LWC V2.00 B2112,2013-01-08 18:58:00,
2013-01-08 14:03:00,51.7,33.7,30.30,WSW,250,0.0,0.0,50,0.00,,,0.00,LWC V2.00 B2112,2013-01-08 19:03:00,
2013-01-08 14:08:00,52.3,35.2,30.30,WSW,250,0.0,0.0,52,0.00,,,0.00,LWC V2.00 B2112,2013-01-08 19:08:00,
2013-01-08 14:13:00,52.6,35.0,30.30,WSW,250,0.0,0.0,51,0.00,,,0.00,LWC V2.00 B2112,2013-01-08 19:13:00,
2013-01-08 14:18:00,52.6,35.5,30.29,WSW,249,0.0,0.0,52,0.00,,,0.00,LWC V2.00 B2112,2013-01-08 19:18:00,
2013-01-08 14:23:00,52.6,35.5,30.29,WSW,249,0.0,0.0,52,0.00,,,0.00,LWC V2.00 B2112,2013-01-08 19:23:00,
2013-01-08 14:28:00,53.1,35.9,30.29,WSW,249,0.0,0.0,52,0.00,,,0.00,LWC V2.00 B2112,2013-01-08 19:28:00,
2013-01-08 14:33:00,53.5,35.8,30.29,ESE,113,0.0,0.0,51,0.00,,,0.00,LWC V2.00 B2112,2013-01-08 19:33:00,
2013-01-08 14:38:00,53.9,34.7,30.29,ESE,113,0.0,0.0,48,0.00,,,0.00,LWC V2.00 B2112,2013-01-08 19:38:00,
2013-01-08 14:43:00,54.1,34.8,30.29,ESE,113,0.0,0.0,48,0.00,,,0.00,LWC V2.00 B2112,2013-01-08 19:43:00,
2013-01-08 14:48:00,54.4,36.2,30.29,SSW,200,0.0,0.0,50,0.00,,,0.00,LWC V2.00 B2112,2013-01-08 19:48:00,
2013-01-08 14:53:00,54.5,35.2,30.29,SSW,200,0.0,0.0,48,0.00,,,0.00,LWC V2.00 B2112,2013-01-08 19:53:00,
2013-01-08 14:58:00,54.5,36.2,30.29,SSW,200,0.0,0.0,50,0.00,,,0.00,LWC V2.00 B2112,2013-01-08 19:58:00,
2013-01-08 15:03:00,54.4,35.1,30.29,SSW,200,0.0,0.0,48,0.00,,,0.00,LWC V2.00 B2112,2013-01-08 20:03:00,
2013-01-08 15:08:00,54.5,35.2,30.29,SSW,200,0.0,0.0,48,0.00,,,0.00,LWC V2.00 B2112,2013-01-08 20:08:00,
2013-01-08 15:13:00,54.5,35.7,30.29,SSW,200,0.0,0.0,49,0.00,,,0.00,LWC V2.00 B2112,2013-01-08 20:13:00,
2013-01-08 15:18:00,54.5,35.7,30.29,ESE,122,0.0,0.0,49,0.00,,,0.00,LWC V2.00 B2112,2013-01-08 20:18:00,
2013-01-08 15:23:00,54.5,35.7,30.29,ESE,122,0.0,0.0,49,0.00,,,0.00,LWC V2.00 B2112,2013-01-08 20:23:00,
2013-01-08 15:28:00,54.5,35.2,30.29,ESE,122,0.0,0.0,48,0.00,,,0.00,LWC V2.00 B2112,2013-01-08 20:28:00,
2013-01-08 15:33:00,54.5,35.2,30.29,ESE,122,0.0,0.0,48,0.00,,,0.00,LWC V2.00 B2112,2013-01-08 20:33:00,
2013-01-08 15:38:00,54.2,35.5,30.29,ESE,109,0.0,0.0,49,0.00,,,0.00,LWC V2.00 B2112,2013-01-08 20:38:00,
2013-01-08 15:43:00,54.2,35.5,30.29,ESE,109,0.0,0.0,49,0.00,,,0.00,LWC V2.00 B2112,2013-01-08 20:43:00,
2013-01-08 15:48:00,53.9,35.2,30.28,ESE,108,0.0,0.0,49,0.00,,,0.00,LWC V2.00 B2112,2013-01-08 20:48:00,
2013-01-08 15:53:00,53.8,35.6,30.28,ESE,108,0.0,0.0,50,0.00,,,0.00,LWC V2.00 B2112,2013-01-08 20:53:00,
2013-01-08 15:58:00,53.8,36.1,30.28,ESE,108,0.0,0.0,51,0.00,,,0.00,LWC V2.00 B2112,2013-01-08 20:58:00,
2013-01-08 16:03:00,53.6,35.9,30.29,ESE,108,0.0,0.0,51,0.00,,,0.00,LWC V2.00 B2112,2013-01-08 21:03:00,
2013-01-08 16:08:00,53.8,36.1,30.29,ESE,108,0.0,0.0,51,0.00,,,0.00,LWC V2.00 B2112,2013-01-08 21:08:00,
2013-01-08 16:13:00,53.6,36.4,30.29,ESE,108,0.0,0.0,52,0.00,,,0.00,LWC V2.00 B2112,2013-01-08 21:13:00,
2013-01-08 16:18:00,53.3,36.6,30.30,ESE,108,0.0,0.0,53,0.00,,,0.00,LWC V2.00 B2112,2013-01-08 21:18:00,
2013-01-08 16:23:00,52.9,36.7,30.30,ESE,108,0.0,0.0,54,0.00,,,0.00,LWC V2.00 B2112,2013-01-08 21:23:00,
2013-01-08 16:28:00,52.6,36.4,30.30,ESE,108,0.0,0.0,54,0.00,,,0.00,LWC V2.00 B2112,2013-01-08 21:28:00,
2013-01-08 16:33:00,52.3,36.6,30.30,ESE,108,0.0,0.0,55,0.00,,,0.00,LWC V2.00 B2112,2013-01-08 21:33:00,
2013-01-08 16:38:00,52.3,36.6,30.30,ESE,108,0.0,0.0,55,0.00,,,0.00,LWC V2.00 B2112,2013-01-08 21:38:00,
2013-01-08 16:43:00,52.5,37.7,30.30,ESE,108,0.0,0.0,57,0.00,,,0.00,LWC V2.00 B2112,2013-01-08 21:43:00,
2013-01-08 16:48:00,52.5,37.7,30.31,ESE,108,0.0,0.0,57,0.00,,,0.00,LWC V2.00 B2112,2013-01-08 21:48:00,
2013-01-08 16:53:00,52.3,37.1,30.31,ESE,108,0.0,0.0,56,0.00,,,0.00,LWC V2.00 B2112,2013-01-08 21:53:00,
2013-01-08 16:58:00,51.9,36.7,30.31,ESE,108,0.0,0.0,56,0.00,,,0.00,LWC V2.00 B2112,2013-01-08 21:58:00,
2013-01-08 17:03:00,51.4,36.2,30.31,ESE,108,0.0,0.0,56,0.00,,,0.00,LWC V2.00 B2112,2013-01-08 22:03:00,
2013-01-08 17:08:00,51.0,36.3,30.31,ESE,108,0.0,0.0,57,0.00,,,0.00,LWC V2.00 B2112,2013-01-08 22:08:00,
2013-01-08 17:13:00,50.4,37.0,30.31,ESE,108,0.0,0.0,60,0.00,,,0.00,LWC V2.00 B2112,2013-01-08 22:13:00,
2013-01-08 17:18:00,49.9,37.4,30.31,ESE,108,0.0,0.0,62,0.00,,,0.00,LWC V2.00 B2112,2013-01-08 22:18:00,
2013-01-08 17:23:00,49.5,37.0,30.31,ESE,108,0.0,0.0,62,0.00,,,0.00,LWC V2.00 B2112,2013-01-08 22:23:00,
2013-01-08 17:28:00,49.2,37.1,30.31,ESE,108,0.0,0.0,63,0.00,,,0.00,LWC V2.00 B2112,2013-01-08 22:28:00,
2013-01-08 17:33:00,48.9,37.3,30.31,ESE,108,0.0,0.0,64,0.00,,,0.00,LWC V2.00 B2112,2013-01-08 22:33:00,
2013-01-08 17:38:00,48.5,37.3,30.31,ESE,108,0.0,0.0,65,0.00,,,0.00,LWC V2.00 B2112,2013-01-08 22:38:00,
2013-01-08 17:43:00,48.2,37.0,30.31,ESE,108,0.0,0.0,65,0.00,,,0.00,LWC V2.00 B2112,2013-01-08 22:43:00,
2013-01-08 17:48:00,47.9,37.1,30.32,ESE,108,0.0,0.0,66,0.00,,,0.00,LWC V2.00 B2112,2013-01-08 22:48:00,
2013-01-08 17:53:00,47.4,37.0,30.32,ESE,108,0.0,0.0,67,0.00,,,0.00,LWC V2.00 B2112,2013-01-08 22:53:00,
2013-01-08 17:58:00,47.1,37.1,30.32,ESE,108,0.0,0.0,68,0.00,,,0.00,LWC V2.00 B2112,2013-01-08 22:58:00,
2013-01-08 18:03:00,47.1,37.5,30.32,ESE,108,0.0,0.0,69,0.00,,,0.00,LWC V2.00 B2112,2013-01-08 23:03:00,
2013-01-08 18:08:00,47.0,37.7,30.32,ESE,108,0.0,0.0,70,0.00,,,0.00,LWC V2.00 B2112,2013-01-08 23:08:00,
2013-01-08 18:13:00,46.8,37.5,30.32,ESE,108,0.0,0.0,70,0.00,,,0.00,LWC V2.00 B2112,2013-01-08 23:13:00,
2013-01-08 18:18:00,46.7,37.4,30.32,ESE,108,0.0,0.0,70,0.00,,,0.00,LWC V2.00 B2112,2013-01-08 23:18:00,
2013-01-08 18:23:00,46.5,37.3,30.32,ESE,108,0.0,0.0,70,0.00,,,0.00,LWC V2.00 B2112,2013-01-08 23:23:00,
2013-01-08 18:28:00,46.2,37.0,30.32,ESE,108,0.0,0.0,70,0.00,,,0.00,LWC V2.00 B2112,2013-01-08 23:28:00,
2013-01-08 18:33:00,46.1,36.9,30.32,ESE,108,0.0,0.0,70,0.00,,,0.00,LWC V2.00 B2112,2013-01-08 23:33:00,
2013-01-08 18:38:00,46.0,36.8,30.32,ESE,108,0.0,0.0,70,0.00,,,0.00,LWC V2.00 B2112,2013-01-08 23:38:00,
2013-01-08 18:43:00,45.8,36.9,30.32,ESE,108,0.0,0.0,71,0.00,,,0.00,LWC V2.00 B2112,2013-01-08 23:43:00,
2013-01-08 18:48:00,45.7,36.8,30.32,ESE,108,0.0,0.0,71,0.00,,,0.00,LWC V2.00 B2112,2013-01-08 23:48:00,
2013-01-08 18:53:00,45.4,36.6,30.32,ESE,108,0.0,0.0,71,0.00,,,0.00,LWC V2.00 B2112,2013-01-08 23:53:00,
2013-01-08 18:58:00,45.2,36.7,30.32,ESE,108,0.0,0.0,72,0.00,,,0.00,LWC V2.00 B2112,2013-01-08 23:58:00,
2013-01-08 19:03:00,45.1,36.6,30.32,ESE,108,0.0,0.0,72,0.00,,,0.00,LWC V2.00 B2112,2013-01-09 00:03:00,
2013-01-08 19:08:00,45.1,36.6,30.32,ESE,108,0.0,0.0,72,0.00,,,0.00,LWC V2.00 B2112,2013-01-09 00:08:00,
2013-01-08 19:13:00,44.8,36.3,30.32,ESE,108,0.0,0.0,72,0.00,,,0.00,LWC V2.00 B2112,2013-01-09 00:13:00,
2013-01-08 19:18:00,44.5,36.4,30.32,ESE,108,0.0,0.0,73,0.00,,,0.00,LWC V2.00 B2112,2013-01-09 00:18:00,
2013-01-08 19:23:00,44.2,36.1,30.32,ESE,108,0.0,0.0,73,0.00,,,0.00,LWC V2.00 B2112,2013-01-09 00:23:00,
2013-01-08 19:28:00,43.9,36.2,30.32,ESE,108,0.0,0.0,74,0.00,,,0.00,LWC V2.00 B2112,2013-01-09 00:28:00,
2013-01-08 19:33:00,43.8,36.1,30.32,ESE,108,0.0,0.0,74,0.00,,,0.00,LWC V2.00 B2112,2013-01-09 00:33:00,
2013-01-08 19:38:00,43.5,35.8,30.32,ESE,108,0.0,0.0,74,0.00,,,0.00,LWC V2.00 B2112,2013-01-09 00:38:00,
2013-01-08 19:43:00,43.2,35.8,30.32,ESE,108,0.0,0.0,75,0.00,,,0.00,LWC V2.00 B2112,2013-01-09 00:43:00,
2013-01-08 19:48:00,43.1,36.1,30.32,ESE,108,0.0,0.0,76,0.00,,,0.00,LWC V2.00 B2112,2013-01-09 00:48:00,
2013-01-08 19:53:00,43.1,36.1,30.32,ESE,108,0.0,0.0,76,0.00,,,0.00,LWC V2.00 B2112,2013-01-09 00:53:00,
2013-01-08 19:58:00,42.9,36.2,30.32,ESE,108,0.0,0.0,77,0.00,,,0.00,LWC V2.00 B2112,2013-01-09 00:58:00,
2013-01-08 20:03:00,42.9,36.2,30.32,ESE,108,0.0,0.0,77,0.00,,,0.00,LWC V2.00 B2112,2013-01-09 01:03:00,
2013-01-08 20:08:00,42.9,35.9,30.32,ESE,108,0.0,0.0,76,0.00,,,0.00,LWC V2.00 B2112,2013-01-09 01:08:00,
2013-01-08 20:13:00,42.8,36.1,30.32,ESE,108,0.0,0.0,77,0.00,,,0.00,LWC V2.00 B2112,2013-01-09 01:13:00,
2013-01-08 20:18:00,42.9,36.2,30.32,ESE,108,0.0,0.0,77,0.00,,,0.00,LWC V2.00 B2112,2013-01-09 01:18:00,
2013-01-08 20:23:00,43.1,36.4,30.32,ESE,108,0.0,0.0,77,0.00,,,0.00,LWC V2.00 B2112,2013-01-09 01:23:00,
2013-01-08 20:28:00,43.3,36.3,30.32,ESE,108,0.0,0.0,76,0.00,,,0.00,LWC V2.00 B2112,2013-01-09 01:28:00,
2013-01-08 20:33:00,43.5,36.8,30.32,ESE,108,0.0,0.0,77,0.00,,,0.00,LWC V2.00 B2112,2013-01-09 01:33:00,
2013-01-08 20:38:00,43.5,36.8,30.32,ESE,108,0.0,0.0,77,0.00,,,0.00,LWC V2.00 B2112,2013-01-09 01:38:00,
2013-01-08 20:43:00,43.6,36.9,30.32,ESE,108,0.0,0.0,77,0.00,,,0.00,LWC V2.00 B2112,2013-01-09 01:43:00,
2013-01-08 20:48:00,43.6,36.9,30.32,ESE,108,0.0,0.0,77,0.00,,,0.00,LWC V2.00 B2112,2013-01-09 01:48:00,
2013-01-08 20:53:00,43.8,37.4,30.32,ESE,108,0.0,0.0,78,0.00,,,0.00,LWC V2.00 B2112,2013-01-09 01:53:00,
2013-01-08 20:58:00,43.9,37.2,30.32,ESE,108,0.0,0.0,77,0.00,,,0.00,LWC V2.00 B2112,2013-01-09 01:58:00,
2013-01-08 21:03:00,44.1,37.4,30.32,ESE,108,0.0,0.0,77,0.00,,,0.00,LWC V2.00 B2112,2013-01-09 02:03:00,
2013-01-08 21:08:00,44.2,37.5,30.32,ESE,108,0.0,0.0,77,0.00,,,0.00,LWC V2.00 B2112,2013-01-09 02:08:00,
2013-01-08 21:13:00,44.5,37.7,30.32,ESE,108,0.0,0.0,77,0.00,,,0.00,LWC V2.00 B2112,2013-01-09 02:13:00,
2013-01-08 21:18:00,44.6,37.8,30.33,ESE,108,0.0,0.0,77,0.00,,,0.00,LWC V2.00 B2112,2013-01-09 02:18:00,
2013-01-08 21:23:00,44.9,37.1,30.33,ESE,108,0.0,0.0,74,0.00,,,0.00,LWC V2.00 B2112,2013-01-09 02:23:00,
2013-01-08 21:28:00,45.2,37.4,30.33,ESE,108,0.0,0.0,74,0.00,,,0.00,LWC V2.00 B2112,2013-01-09 02:28:00,
2013-01-08 21:33:00,45.1,37.3,30.32,ESE,108,0.0,0.0,74,0.00,,,0.00,LWC V2.00 B2112,2013-01-09 02:33:00,
2013-01-08 21:38:00,44.9,37.5,30.32,ESE,108,0.0,0.0,75,0.00,,,0.00,LWC V2.00 B2112,2013-01-09 02:38:00,
2013-01-08 21:43:00,44.6,37.5,30.32,ESE,108,0.0,0.0,76,0.00,,,0.00,LWC V2.00 B2112,2013-01-09 02:43:00,
2013-01-08 21:48:00,44.2,37.1,30.32,ESE,108,0.0,0.0,76,0.00,,,0.00,LWC V2.00 B2112,2013-01-09 02:48:00,
2013-01-08 21:53:00,43.9,37.2,30.32,ESE,108,0.0,0.0,77,0.00,,,0.00,LWC V2.00 B2112,2013-01-09 02:53:00,
2013-01-08 21:58:00,43.5,36.8,30.32,ESE,108,0.0,0.0,77,0.00,,,0.00,LWC V2.00 B2112,2013-01-09 02:58:00,
2013-01-08 22:03:00,43.2,36.8,30.32,ESE,108,0.0,0.0,78,0.00,,,0.00,LWC V2.00 B2112,2013-01-09 03:03:00,
2013-01-08 22:08:00,42.9,36.8,30.32,ESE,108,0.0,0.0,79,0.00,,,0.00,LWC V2.00 B2112,2013-01-09 03:08:00,
2013-01-08 22:13:00,42.9,36.8,30.32,ESE,108,0.0,0.0,79,0.00,,,0.00,LWC V2.00 B2112,2013-01-09 03:13:00,
2013-01-08 22:18:00,42.8,36.7,30.31,ESE,108,0.0,0.0,79,0.00,,,0.00,LWC V2.00 B2112,2013-01-09 03:18:00,
2013-01-08 22:23:00,42.6,36.9,30.31,ESE,108,0.0,0.0,80,0.00,,,0.00,LWC V2.00 B2112,2013-01-09 03:23:00,
2013-01-08 22:28:00,42.5,36.8,30.31,ESE,108,0.0,0.0,80,0.00,,,0.00,LWC V2.00 B2112,2013-01-09 03:28:00,
2013-01-08 22:33:00,42.3,36.6,30.31,ESE,108,0.0,0.0,80,0.00,,,0.00,LWC V2.00 B2112,2013-01-09 03:33:00,
2013-01-08 22:38:00,42.3,36.9,30.31,ESE,108,0.0,0.0,81,0.00,,,0.00,LWC V2.00 B2112,2013-01-09 03:38:00,
2013-01-08 22:43:00,42.2,36.8,30.31,ESE,108,0.0,0.0,81,0.00,,,0.00,LWC V2.00 B2112,2013-01-09 03:43:00,
2013-01-08 22:48:00,42.2,36.8,30.32,ESE,108,0.0,0.0,81,0.00,,,0.00,LWC V2.00 B2112,2013-01-09 03:48:00,
2013-01-08 22:53:00,42.3,37.2,30.32,ESE,108,0.0,0.0,82,0.00,,,0.00,LWC V2.00 B2112,2013-01-09 03:53:00,
2013-01-08 22:58:00,42.5,37.4,30.32,ESE,108,0.0,0.0,82,0.00,,,0.00,LWC V2.00 B2112,2013-01-09 03:58:00,
2013-01-08 23:03:00,42.8,37.4,30.31,ESE,108,0.0,0.0,81,0.00,,,0.00,LWC V2.00 B2112,2013-01-09 04:03:00,
2013-01-08 23:08:00,42.6,37.2,30.31,ESE,108,0.0,0.0,81,0.00,,,0.00,LWC V2.00 B2112,2013-01-09 04:08:00,
2013-01-08 23:13:00,42.6,37.2,30.31,ESE,108,0.0,0.0,81,0.00,,,0.00,LWC V2.00 B2112,2013-01-09 04:13:00,
2013-01-08 23:18:00,42.6,37.5,30.31,ESE,108,0.0,0.0,82,0.00,,,0.00,LWC V2.00 B2112,2013-01-09 04:18:00,
2013-01-08 23:23:00,42.6,37.5,30.31,ESE,108,0.0,0.0,82,0.00,,,0.00,LWC V2.00 B2112,2013-01-09 04:23:00,
2013-01-08 23:28:00,42.6,37.5,30.31,ESE,108,0.0,0.0,82,0.00,,,0.00,LWC V2.00 B2112,2013-01-09 04:28:00,
2013-01-08 23:33:00,42.8,37.7,30.31,ESE,108,0.0,0.0,82,0.00,,,0.00,LWC V2.00 B2112,2013-01-09 04:33:00,
2013-01-08 23:38:00,42.8,37.7,30.31,ESE,108,0.0,0.0,82,0.00,,,0.00,LWC V2.00 B2112,2013-01-09 04:38:00,
2013-01-08 23:43:00,42.8,37.7,30.31,ESE,108,0.0,0.0,82,0.00,,,0.00,LWC V2.00 B2112,2013-01-09 04:43:00,
2013-01-08 23:48:00,42.8,37.7,30.31,ESE,108,0.0,0.0,82,0.00,,,0.00,LWC V2.00 B2112,2013-01-09 04:48:00,
2013-01-08 23:53:00,42.8,37.4,30.31,ESE,108,0.0,0.0,81,0.00,,,0.00,LWC V2.00 B2112,2013-01-09 04:53:00,
2013-01-08 23:58:00,42.5,37.1,30.31,ESE,108,0.0,0.0,81,0.00,,,0.00,LWC V2.00 B2112,2013-01-09 04:58:00,